Wind_Speed
6 5 4 4 4 3 2 2 1 1 2 2 3 3 3 2 2 2 2 2 2 2 2 2 2 3 3 3 3 3 3 3 3 3 3 3 4 4 5 5 6 6 7
7 6 5 5 5 4 4 3 2 2 3 3 3 3 3 3 3 3 3 3 3 3 3 2 2 3 3 2 2 2 2 2 2 2 2 2 3 4 4 4 5 6 6
7 7 6 6 6 5 5 4 3 3 3 3 4 4 4 4 4 4 4 4 4 4 4 3 3 3 3 2 2 2 2 2 2 1 1 2 2 3 3 3 4 5 6
8 8 7 7 7 7 6 5 4 4 4 4 4 4 5 5 5 5 5 5 5 5 5 5 5 4 4 3 2 2 2 1 1 1 1 2 2 2 2 3 3 4 5
7 8 9 8 8 8 7 6 5 5 5 4 4 5 5 6 6 6 6 6 6 6 6 6 6 5 5 4 4 3 3 2 2 1 0 1 1 1 2 2 3 3 4
8 9 10 10 10 9 9 8 7 6 6 5 5 5 6 6 7 7 7 7 7 7 7 7 7 6 6 6 6 5 4 4 3 2 1 1 1 1 1 2 2 3 3
9 10 11 12 11 12 10 9 8 7 6 5 5 5 6 7 8 8 8 8 8 8 8 8 8 8 8 8 8 7 6 5 5 4 3 3 2 2 2 2 2 3 3
10 11 12 13 12 13 12 11 9 8 7 6 6 6 6 7 8 8 9 9 9 9 9 9 9 9 9 9 9 8 8 7 7 6 5 5 4 3 3 3 2 3 3
11 12 13 14 14 14 13 12 11 9 7 7 6 7 7 8 9 9 9 9 10 9 10 10 10 10 10 10 9 9 9 8 8 8 7 6 5 5 4 4 3 3 3
12 13 14 14 15 15 15 14 12 10 9 8 8 8 8 9 9 10 10 11 11 10 10 10 10 11 11 10 9 9 9 8 8 9 8 7 6 6 5 5 4 4 4
13 15 16 15 15 15 15 14 13 11 10 9 9 9 9 9 10 10 11 11 11 11 11 11 12 12 11 10 9 9 8 8 9 8 8 7 6 6 6 6 5 5 5
15 16 17 17 16 16 15 15 14 13 11 10 10 10 10 10 11 11 11 12 12 12 12 12 12 12 11 10 9 8 8 8 8 8 8 8 7 7 7 7 7 6 6
15 17 18 19 18 17 16 15 14 14 13 11 11 10 11 11 11 11 11 11 11 11 11 11 10 11 10 10 9 8 8 8 8 7 7 8 7 8 7 7 7 7 7
16 18 19 20 20 19 18 16 15 14 14 13 12 12 11 11 11 11 10 9 9 9 8 8 8 8 9 8 8 7 7 7 7 6 6 6 7 7 7 8 8 8 9
16 18 20 22 21 20 18 16 16 15 15 13 12 12 12 11 10 9 8 7 7 6 5 5 5 6 6 7 7 7 6 5 5 5 5 5 6 6 7 8 9 9 9
15 18 21 20 21 20 19 17 16 16 14 13 12 12 12 11 9 8 7 6 5 5 4 3 3 4 4 5 5 5 5 5 5 5 4 4 5 5 6 7 8 9 9
14 18 20 20 20 19 18 17 16 15 13 12 11 10 10 9 7 7 6 5 4 4 3 3 2 2 3 4 3 3 3 3 4 4 4 4 4 5 5 6 7 8 9
12 15 19 19 19 19 19 18 16 14 13 12 10 9 8 7 6 5 5 4 4 3 3 3 2 1 1 2 2 2 2 2 3 3 3 3 4 4 5 5 6 7 8
11 14 17 18 19 17 18 17 16 14 11 10 9 8 7 7 6 5 5 4 4 3 2 2 1 0 0 0 1 2 2 2 2 2 3 3 3 4 4 5 6 6 7
9 12 16 17 18 16 17 17 14 13 12 10 10 9 8 7 7 6 6 5 4 4 3 3 3 3 2 2 2 2 2 2 2 2 2 3 3 3 4 4 5 6 7
9 12 14 17 16 15 16 16 14 13 12 11 10 10 9 8 7 7 7 7 6 5 5 4 4 4 4 3 3 3 3 3 4 3 2 2 2 3 4 4 4 4 5
7 11 13 16 17 16 15 14 14 12 12 12 11 11 10 9 8 8 8 8 7 6 5 5 4 4 4 3 3 3 4 5 5 4 4 3 3 3 4 4 4 4 4
6 10 12 14 15 16 15 13 13 13 12 13 12 11 10 10 10 9 9 8 8 7 6 5 5 4 3 4 4 4 5 6 6 5 5 4 4 4 4 4 4 4 5
6 10 12 14 15 14 14 13 13 14 14 14 13 12 11 11 10 9 9 9 8 7 7 6 5 4 3 3 4 4 5 5 5 6 6 5 5 5 5 5 5 5 5
7 9 10 13 14 14 15 14 14 15 14 14 13 13 12 12 11 10 9 9 9 8 7 6 5 4 3 2 2 3 3 4 5 5 6 6 6 6 5 6 6 6 6
6 8 9 10 12 14 14 15 15 15 15 14 14 14 14 13 12 11 10 10 9 8 7 6 5 4 2 1 0 1 2 3 4 5 6 6 7 7 6 7 7 7 7
Wind_Direction
216 205 198 194 189 185 187 195 226 281 305 314 317 319 327 332 332 324 315 319 322 329 336 349 5 10 8 16 28 42 49 48 50 63 75 81 89 90 87 84 82 79 78
219 214 208 204 201 201 199 206 229 256 280 290 300 307 314 317 317 317 312 309 308 311 313 319 333 343 347 357 14 31 40 41 47 69 84 89 95 93 91 91 90 88 84
222 217 215 208 207 206 205 210 226 243 265 278 288 294 298 304 307 306 302 300 300 300 297 297 302 312 320 329 347 1 13 22 37 55 84 93 99 100 97 95 95 94 91
223 217 216 215 211 207 205 211 224 236 253 268 278 284 290 298 299 298 297 297 295 296 294 292 293 299 302 305 310 317 321 341 2 22 69 97 95 98 105 102 98 100 98
234 223 217 216 217 215 211 215 225 236 246 255 269 279 287 294 294 293 293 293 292 292 290 291 293 296 297 299 295 291 292 293 285 297 320 125 117 121 122 117 112 113 109
240 231 221 221 220 218 216 220 224 234 244 251 265 277 285 290 290 290 290 290 289 290 289 290 294 296 294 295 293 287 282 280 282 278 255 224 193 171 165 150 135 132 125
243 234 229 226 225 222 219 221 225 231 239 251 263 272 280 285 286 289 289 288 287 288 288 290 293 293 292 292 289 283 277 276 278 273 256 249 242 233 211 188 163 152 145
247 231 228 225 227 223 217 218 223 230 239 246 254 263 274 282 286 290 289 288 287 287 287 289 291 291 290 289 285 279 276 274 274 271 262 254 246 241 234 218 192 172 162
255 237 225 226 227 225 218 218 220 228 237 244 254 264 272 279 284 289 288 287 287 288 287 287 288 288 288 288 285 278 273 272 273 271 267 266 250 241 235 222 211 198 186
254 238 225 225 227 227 224 222 220 227 235 244 255 267 275 280 284 288 287 286 286 287 286 285 287 288 288 286 282 278 275 272 271 271 266 261 253 247 240 229 223 218 209
252 237 230 226 224 222 222 224 223 227 232 241 253 264 273 279 283 286 286 283 284 284 282 283 286 287 287 284 280 277 276 269 271 267 267 263 252 247 241 237 234 228 225
248 242 233 225 221 219 222 226 226 228 232 240 250 259 269 276 280 282 283 281 281 283 280 281 282 283 283 280 276 276 276 267 270 271 270 262 254 252 249 240 236 234 235
244 241 230 224 219 217 219 222 224 232 234 238 247 258 267 274 277 279 281 281 281 281 278 277 279 280 282 281 278 278 280 273 265 265 270 259 251 254 250 243 240 239 239
249 237 226 221 217 215 215 219 224 234 235 236 244 253 262 271 274 277 281 278 277 277 271 270 274 277 281 282 280 279 280 280 269 268 278 254 252 252 252 246 243 244 243
249 235 222 216 214 215 215 217 225 234 237 237 241 248 257 267 271 271 272 270 272 270 262 262 270 285 288 284 282 283 281 279 277 277 283 258 252 255 257 250 244 245 246
243 232 222 215 211 213 215 217 223 228 231 235 240 245 253 257 259 258 254 256 260 260 258 259 273 287 292 292 287 282 278 276 275 278 273 265 263 261 262 256 251 250 251
240 228 214 211 209 209 212 216 222 224 228 234 237 240 247 247 244 244 241 232 238 240 246 251 260 281 297 304 303 297 288 280 275 274 275 270 266 264 263 263 259 256 252
238 218 208 208 208 210 210 213 218 219 226 230 233 235 234 230 230 230 217 213 213 213 222 225 232 272 305 313 324 321 297 288 280 281 284 282 274 269 268 265 263 259 256
227 208 202 206 210 208 206 208 212 218 225 228 226 218 215 215 215 211 201 199 190 182 177 182 179 159 52 1 343 345 343 331 320 304 293 293 290 279 271 270 268 264 260
210 209 208 202 203 205 207 209 212 218 222 220 212 206 202 205 203 199 192 186 173 164 157 151 133 115 101 82 57 31 23 16 357 337 310 302 301 301 290 282 281 272 263
215 205 201 196 199 204 205 207 210 212 212 208 205 197 196 198 193 189 181 173 165 158 152 145 132 118 102 80 60 45 39 38 27 13 359 337 325 322 319 309 301 294 278
209 200 199 201 202 202 202 200 201 201 196 196 191 187 189 190 184 178 173 170 166 162 157 150 139 124 107 88 71 57 48 47 42 33 22 5 350 344 337 326 315 311 307
186 189 188 192 192 194 193 190 189 190 189 188 187 185 189 187 181 176 175 174 173 170 163 155 145 129 111 91 74 65 59 50 46 40 31 20 5 355 349 344 328 315 309
177 185 186 188 188 188 189 188 186 188 188 190 188 188 187 185 183 181 178 177 177 175 168 162 152 134 117 99 82 69 60 52 45 37 31 22 15 7 355 342 334 328 316
160 171 177 181 186 188 189 190 189 189 189 190 191 191 189 188 189 187 185 184 182 179 176 173 168 157 136 108 81 59 46 37 30 26 23 17 9 3 356 345 335 328 324
149 159 166 172 181 187 191 192 191 190 190 190 192 194 195 196 195 193 193 191 188 188 189 191 192 194 195 201 318 356 5 2 0 359 0 360 357 355 352 347 336 327 322
Height
5897 5897 5898 5899 5900 5901 5902 5903 5903 5904 5904 5904 5905 5904 5904 5904 5903 5902 5902 5901 5901 5900 5899 5899 5898 5898 5897 5897 5897 5896 5896 5895 5895 5894 5894 5893 5893 5892 5892 5891 5891 5891 5891
5896 5897 5898 5899 5900 5901 5902 5903 5903 5904 5904 5905 5905 5905 5904 5904 5903 5903 5902 5901 5901 5900 5900 5899 5899 5898 5898 5897 5897 5896 5896 5895 5895 5895 5894 5894 5893 5893 5893 5892 5892 5892 5892
5895 5896 5897 5898 5899 5900 5901 5902 5903 5904 5904 5905 5904 5904 5904 5904 5904 5903 5902 5902 5901 5900 5900 5899 5899 5898 5898 5897 5897 5897 5896 5896 5895 5895 5894 5894 5894 5894 5893 5893 5893 5893 5893
5893 5894 5896 5897 5898 5900 5901 5902 5903 5903 5904 5904 5904 5904 5904 5904 5904 5903 5902 5902 5901 5900 5900 5899 5899 5898 5897 5897 5896 5896 5896 5895 5895 5895 5894 5895 5894 5894 5894 5894 5894 5894 5894
5892 5893 5894 5895 5897 5898 5900 5901 5902 5902 5903 5904 5904 5904 5904 5904 5904 5903 5902 5902 5901 5900 5899 5899 5898 5898 5897 5897 5896 5896 5895 5895 5895 5894 5894 5895 5895 5895 5894 5895 5895 5895 5895
5890 5891 5892 5893 5895 5897 5898 5900 5901 5901 5902 5903 5903 5903 5904 5904 5903 5903 5902 5901 5901 5900 5899 5899 5898 5897 5897 5896 5896 5895 5895 5894 5894 5894 5894 5894 5895 5895 5895 5895 5895 5895 5896
5888 5889 5890 5892 5893 5895 5896 5898 5899 5900 5901 5902 5902 5903 5903 5903 5903 5902 5902 5901 5900 5899 5899 5898 5897 5897 5896 5896 5895 5895 5894 5894 5894 5894 5894 5894 5895 5895 5895 5895 5895 5895 5896
5885 5885 5887 5889 5891 5892 5894 5896 5897 5899 5900 5901 5901 5902 5902 5902 5902 5902 5901 5900 5899 5899 5898 5897 5896 5896 5895 5894 5894 5894 5894 5894 5894 5894 5894 5894 5894 5894 5894 5895 5895 5895 5896
5882 5883 5885 5887 5889 5890 5892 5894 5896 5897 5898 5899 5900 5901 5901 5901 5901 5900 5900 5899 5898 5898 5897 5896 5895 5894 5893 5893 5893 5893 5893 5893 5893 5893 5893 5893 5893 5893 5894 5894 5895 5895 5895
5879 5881 5882 5884 5886 5888 5890 5891 5893 5895 5897 5898 5899 5899 5899 5899 5899 5899 5898 5898 5897 5896 5895 5894 5893 5893 5892 5891 5891 5891 5891 5892 5892 5892 5892 5892 5892 5893 5893 5893 5894 5894 5895
5875 5877 5879 5881 5883 5885 5887 5889 5891 5893 5895 5896 5897 5898 5898 5898 5897 5897 5896 5896 5895 5894 5894 5893 5892 5891 5890 5889 5889 5890 5890 5890 5890 5891 5890 5891 5891 5891 5892 5892 5893 5893 5894
5871 5873 5875 5878 5880 5883 5885 5887 5889 5891 5893 5894 5895 5896 5896 5896 5895 5895 5895 5894 5893 5892 5892 5891 5890 5889 5888 5887 5887 5888 5888 5889 5889 5888 5889 5889 5890 5890 5890 5891 5891 5892 5893
5867 5869 5872 5874 5877 5879 5882 5884 5887 5889 5890 5892 5893 5894 5894 5894 5893 5893 5892 5892 5891 5890 5890 5889 5888 5887 5886 5886 5886 5886 5886 5887 5887 5887 5887 5887 5888 5888 5889 5889 5889 5890 5891
5863 5865 5867 5870 5873 5876 5878 5881 5884 5886 5887 5889 5890 5891 5891 5892 5891 5891 5890 5890 5889 5888 5888 5887 5886 5885 5885 5884 5884 5884 5885 5885 5885 5885 5885 5886 5886 5886 5887 5887 5887 5888 5889
5858 5860 5862 5866 5870 5873 5875 5878 5881 5883 5885 5886 5888 5889 5889 5889 5889 5889 5888 5888 5887 5887 5887 5886 5885 5884 5884 5883 5883 5883 5883 5883 5884 5884 5884 5884 5884 5884 5885 5885 5886 5886 5887
5853 5855 5859 5862 5866 5870 5873 5875 5878 5880 5882 5884 5885 5886 5887 5887 5887 5887 5887 5886 5886 5886 5886 5885 5885 5884 5883 5882 5882 5882 5882 5882 5882 5882 5882 5883 5883 5883 5883 5883 5884 5884 5884
5848 5850 5852 5858 5863 5866 5870 5873 5875 5878 5880 5881 5882 5884 5885 5885 5885 5885 5885 5885 5885 5885 5885 5885 5884 5883 5882 5882 5881 5881 5881 5881 5881 5881 5881 5881 5881 5881 5881 5881 5882 5882 5882
5844 5846 5850 5854 5859 5864 5867 5870 5873 5875 5877 5879 5880 5881 5882 5883 5883 5884 5884 5884 5884 5884 5884 5884 5884 5883 5882 5881 5881 5880 5880 5880 5879 5879 5879 5879 5879 5880 5880 5880 5880 5880 5880
5841 5844 5847 5852 5856 5861 5864 5867 5870 5873 5875 5876 5878 5879 5880 5881 5882 5882 5883 5883 5883 5883 5883 5883 5883 5882 5882 5881 5880 5880 5879 5879 5879 5879 5878 5878 5878 5878 5878 5878 5878 5878 5878
5838 5841 5845 5849 5853 5858 5861 5865 5868 5870 5872 5874 5876 5877 5879 5880 5880 5881 5882 5882 5882 5882 5883 5883 5883 5882 5882 5881 5881 5880 5879 5879 5878 5878 5878 5877 5877 5877 5877 5877 5877 5876 5876
5837 5840 5843 5846 5851 5855 5859 5863 5866 5868 5870 5872 5874 5876 5877 5878 5879 5880 5881 5881 5882 5882 5882 5883 5883 5882 5882 5881 5881 5880 5879 5879 5878 5877 5877 5877 5876 5876 5876 5875 5875 5874 5874
5835 5838 5842 5846 5850 5854 5858 5861 5864 5866 5868 5870 5872 5874 5876 5877 5878 5879 5880 5880 5881 5882 5882 5882 5882 5882 5882 5882 5881 5880 5879 5879 5878 5877 5877 5876 5876 5875 5875 5874 5874 5873 5872
5835 5838 5841 5845 5848 5852 5856 5859 5861 5864 5866 5869 5871 5873 5874 5876 5877 5878 5879 5879 5880 5881 5881 5882 5882 5882 5882 5882 5881 5881 5880 5879 5878 5878 5877 5876 5875 5875 5874 5873 5872 5872 5871
5835 5837 5840 5844 5848 5851 5854 5857 5859 5862 5864 5867 5869 5871 5873 5874 5876 5877 5877 5878 5879 5880 5881 5881 5881 5881 5881 5881 5881 5880 5880 5879 5878 5877 5877 5876 5875 5874 5873 5872 5871 5870 5870
5835 5837 5840 5843 5846 5849 5852 5855 5858 5860 5862 5865 5868 5870 5872 5873 5874 5875 5876 5877 5878 5879 5879 5880 5880 5881 5881 5881 5880 5880 5879 5879 5878 5877 5876 5875 5874 5873 5872 5871 5870 5869 5868
5836 5838 5840 5842 5845 5848 5850 5853 5856 5858 5861 5863 5866 5868 5870 5871 5872 5874 5875 5876 5877 5877 5878 5879 5879 5879 5879 5879 5879 5879 5878 5878 5877 5876 5875 5874 5873 5872 5871 5870 5868 5867 5866